EHI
1 1 2 4 3 1 0 0 0 0 0 0 0 0 0 0 0 0 1 0 0 1 3 4 3 3 3 3 3 3 3 4 5 4 1 0 0 1 1 1 0 1 2 2 2 1 2 3 3
1 0 3 5 3 0 0 0 0 0 0 0 0 0 0 0 0 0 1 0 0 1 2 3 3 3 3 3 3 3 3 3 4 3 1 0 0 0 0 0 0 1 1 1 1 1 2 3 3
1 2 4 4 2 0 0 0 0 0 0 0 0 0 0 0 0 0 0 0 0 0 1 3 3 3 3 3 3 3 3 3 3 2 1 0 0 0 0 0 0 0 0 0 0 1 2 3 3
3 5 4 1 0 0 0 0 0 0 0 0 0 0 0 0 0 0 0 0 0 0 1 3 3 3 3 3 3 3 3 3 3 1 0 0 0 0 0 0 0 0 0 0 0 1 3 3 3
5 4 2 0 0 0 0 0 0 0 0 0 0 0 0 1 1 1 0 0 0 0 1 3 3 3 3 3 3 3 3 3 2 1 0 0 0 0 0 0 0 0 0 0 1 2 3 3 3
4 2 0 0 0 0 0 0 0 0 0 0 0 0 0 1 1 1 0 0 0 0 1 2 3 3 3 4 4 3 3 2 1 0 0 0 0 0 0 0 0 0 0 0 1 2 3 3 3
2 1 0 0 0 0 0 0 0 0 0 0 0 0 0 2 2 1 0 0 1 1 1 2 4 4 4 4 4 3 2 1 1 1 0 0 0 1 1 0 0 0 0 0 1 2 3 3 3
2 1 0 0 0 0 0 0 0 0 0 0 0 0 1 3 3 1 1 1 2 1 1 2 3 3 3 4 4 3 3 2 2 2 1 0 1 2 2 0 0 0 0 0 0 1 2 2 2
2 1 0 0 0 0 0 0 0 0 0 0 0 0 2 4 3 2 2 3 3 2 1 1 2 2 2 3 3 3 3 2 2 2 1 1 1 1 1 0 0 0 0 0 0 0 0 0 1
2 1 0 0 0 0 0 0 0 0 0 0 0 1 3 5 4 3 2 3 3 2 1 0 1 2 3 3 3 2 2 1 1 1 0 0 0 0 0 0 0 0 0 0 0 0 0 0 0
1 0 0 0 0 0 0 0 0 0 0 0 1 3 5 5 4 2 2 3 3 3 1 0 1 2 3 3 2 1 0 0 0 0 0 0 0 1 1 1 1 0 0 0 0 0 0 0 0
0 0 0 0 0 0 0 0 0 0 0 0 1 4 6 4 3 2 2 2 3 2 1 0 0 1 2 2 2 1 0 0 0 0 0 0 0 1 1 2 2 1 0 0 0 0 0 0 0
0 0 0 0 0 0 0 0 0 0 0 0 1 4 4 3 1 1 1 1 2 2 1 0 0 0 0 1 1 1 0 0 0 0 0 0 0 0 1 1 1 1 0 0 0 0 0 0 0
0 0 0 0 0 0 0 0 0 0 0 0 0 1 2 2 2 1 1 1 2 2 2 1 0 0 0 0 0 0 0 1 0 0 0 0 0 0 0 0 0 0 0 0 0 0 0 0 0
0 0 0 0 0 0 0 0 0 1 1 0 0 0 1 4 5 4 3 2 3 3 3 1 0 0 0 0 0 0 0 0 0 0 0 0 0 0 0 0 0 1 1 0 0 0 0 0 0
0 0 0 0 0 0 0 0 2 3 2 0 0 0 1 4 7 6 4 3 3 3 3 2 1 1 1 1 0 0 0 0 0 0 0 0 0 0 1 1 1 2 2 1 0 0 0 0 0
0 0 0 0 0 0 0 1 3 3 2 0 0 1 2 4 6 6 5 4 3 3 3 3 1 2 3 2 0 0 0 0 0 0 0 0 0 1 2 2 3 3 3 2 1 1 0 0 0
0 0 0 0 0 0 0 0 2 3 2 1 2 4 4 4 4 5 5 4 3 3 4 4 4 4 5 4 2 1 0 0 0 0 0 1 2 3 4 4 4 4 5 5 3 1 0 0 0
0 0 0 0 0 0 0 0 1 3 3 3 5 7 8 7 5 4 5 5 4 5 6 6 6 7 8 7 6 4 2 1 1 1 2 3 5 5 6 6 6 6 7 7 5 3 1 0 0
0 0 0 0 0 0 0 0 1 3 4 4 7 10 11 11 8 5 5 5 6 7 9 9 8 8 8 9 8 7 4 3 3 3 4 6 6 6 6 6 6 6 6 6 6 5 2 1 0
0 0 0 0 0 0 0 0 0 2 3 6 9 11 13 13 11 9 8 8 8 10 13 13 12 11 12 12 10 8 6 5 4 4 5 6 6 6 6 6 6 5 5 5 6 5 3 1 0
0 0 0 0 0 0 0 0 0 2 5 8 10 12 12 13 13 12 13 11 10 11 13 15 16 17 17 15 13 10 8 6 4 4 5 6 6 5 4 4 4 4 4 5 6 5 4 2 1
0 0 0 0 0 0 0 0 1 3 6 8 11 12 12 14 15 15 14 14 11 9 10 14 17 20 19 17 15 13 9 6 5 5 5 5 5 4 3 4 6 5 5 6 6 6 5 2 1
0 0 0 0 0 0 0 0 1 2 4 7 10 12 14 15 17 17 17 16 13 10 9 12 17 20 19 18 17 16 11 8 7 6 5 5 4 4 3 5 8 8 6 6 7 7 6 3 2
0 0 0 0 0 0 0 0 1 1 2 4 7 11 14 15 16 18 20 21 18 16 15 17 21 24 23 21 20 18 14 10 9 7 6 5 5 5 5 7 10 9 7 7 8 9 7 5 4
0 0 0 0 0 0 0 1 2 1 1 3 6 10 12 13 15 18 21 22 21 21 22 23 26 29 27 24 21 18 14 11 9 8 8 6 5 4 7 9 10 8 7 6 7 8 8 7 7
0 0 0 0 0 0 0 1 2 3 2 3 5 9 11 12 15 20 21 20 21 22 23 24 28 30 28 25 21 18 15 12 10 10 10 7 5 5 8 10 10 8 7 6 6 6 8 9 10
0 0 0 0 0 0 0 0 2 4 4 4 6 9 10 12 17 21 22 20 19 19 20 22 26 28 25 22 20 18 16 14 13 12 12 10 9 9 9 9 9 8 7 6 6 7 8 11 12
0 0 0 0 0 0 0 0 1 4 5 4 4 7 10 13 18 21 21 20 19 18 19 23 26 26 23 20 19 18 17 16 15 14 13 12 12 12 10 8 7 7 8 9 10 10 11 12 13
0 0 0 0 0 0 0 0 1 4 5 4 4 6 10 14 17 20 19 18 19 18 19 24 28 27 24 20 20 19 18 18 16 15 14 13 13 13 11 7 6 7 8 11 13 13 12 13 13
Wind_Speed
10 8 4 4 5 2 9 8 7 7 7 7 7 5 7 8 7 7 5 5 4 6 7 8 7 8 9 9 9 10 10 11 11 11 10 10 9 9 9 8 8 8 8 7 7 7 7 7 7
6 4 5 5 1 6 9 8 9 9 7 5 6 6 7 8 8 6 5 5 5 6 7 8 9 8 9 9 9 9 10 10 10 10 10 9 8 8 7 7 7 7 7 7 7 7 7 6 6
5 5 5 2 5 8 9 8 9 8 6 4 5 6 7 7 6 5 6 6 6 6 7 10 8 9 9 9 9 9 9 9 10 9 8 8 7 7 7 6 7 7 6 6 6 6 6 6 6
4 5 5 1 9 9 8 7 6 6 6 5 5 7 7 7 4 6 8 7 7 7 8 12 9 9 9 9 8 8 9 9 9 8 7 7 6 6 6 6 6 6 6 5 5 5 6 5 5
5 4 1 6 10 8 7 6 5 5 6 5 5 8 8 7 7 9 8 7 8 8 8 11 10 9 9 8 8 8 9 9 8 7 6 6 6 6 6 5 5 6 5 5 4 4 5 4 4
4 3 2 6 9 7 6 5 4 6 7 6 6 8 7 6 7 8 8 8 8 8 8 10 11 9 9 8 8 8 8 8 7 7 6 5 5 5 5 5 5 5 4 3 3 3 3 3 3
4 1 4 6 7 7 6 4 4 5 6 6 4 7 8 7 7 8 8 8 8 8 7 7 8 9 9 9 8 8 8 7 7 6 6 5 5 5 5 5 5 5 4 3 2 2 2 2 2
4 2 4 6 6 7 6 4 4 5 7 6 2 4 7 9 8 8 8 8 8 7 6 6 6 6 6 7 9 8 7 7 6 6 6 5 5 5 5 5 5 4 3 2 2 2 1 1 2
5 1 6 7 6 6 5 4 4 4 6 5 5 6 10 12 10 9 8 7 7 6 5 5 5 5 4 5 8 7 7 6 5 5 5 3 3 4 4 5 4 3 2 2 2 2 0 2 3
3 3 7 6 5 4 3 3 3 4 5 6 7 9 12 12 10 9 8 7 7 6 5 4 4 4 4 4 4 3 3 4 3 3 3 2 2 2 2 6 4 2 2 1 2 1 4 4 2
1 4 5 4 3 2 2 3 2 2 3 4 7 11 12 12 10 9 8 7 6 6 5 4 4 3 3 3 2 2 2 2 3 3 2 2 1 2 1 2 3 3 2 1 2 2 0 0 1
1 3 3 3 2 2 2 3 3 2 4 4 7 12 13 12 10 8 7 7 6 6 5 4 4 3 2 2 2 2 2 2 1 3 1 1 1 1 1 1 1 1 1 1 1 1 1 1 1
0 2 3 2 2 2 3 3 3 4 4 6 9 11 12 11 9 7 6 6 6 5 5 4 4 3 2 1 1 2 1 1 2 1 1 1 1 1 1 1 0 0 1 0 0 1 1 0 1
2 1 1 1 2 3 3 4 3 5 6 8 9 10 10 9 8 8 7 6 5 5 5 4 4 4 3 2 1 1 1 2 1 1 1 0 1 0 1 1 0 0 0 1 1 1 0 1 1
2 2 2 2 2 3 3 4 3 6 7 8 8 8 8 8 8 7 6 6 6 5 5 4 4 4 3 3 2 2 1 1 1 1 1 1 1 1 1 1 1 0 0 0 1 0 0 0 0
5 4 2 3 2 2 5 2 5 6 8 8 8 8 8 7 7 7 6 5 5 5 5 4 4 4 4 3 2 1 1 1 1 1 1 1 1 1 2 1 1 1 1 1 1 1 0 0 0
5 2 2 2 3 3 4 0 5 6 7 7 8 8 8 8 8 7 6 6 5 5 5 4 4 4 4 4 3 2 1 1 1 1 1 1 2 2 2 2 1 2 1 1 1 1 0 0 0
2 3 2 2 2 4 4 2 4 6 7 7 8 8 8 8 8 8 7 6 6 6 5 5 5 4 4 4 3 2 2 2 2 1 1 1 2 2 3 2 1 2 1 1 0 0 0 1 1
6 6 4 2 1 4 5 4 4 6 7 7 8 8 8 7 7 7 7 7 6 6 6 5 5 5 4 3 3 3 3 2 2 2 1 2 2 2 2 2 1 2 1 1 1 1 2 2 1
7 7 4 1 0 4 4 4 5 7 8 7 7 8 8 8 8 7 7 7 7 6 6 6 6 5 5 4 3 2 2 2 2 1 2 2 2 2 2 2 2 1 1 1 1 2 2 1 1
8 7 5 4 2 5 5 5 5 6 8 8 8 7 8 8 8 9 8 8 7 7 6 5 6 5 6 5 4 3 3 2 3 2 2 3 3 2 2 2 2 2 2 1 2 2 3 2 2
7 4 5 5 6 3 5 4 4 6 7 9 9 9 9 8 8 8 8 8 8 7 6 6 6 5 5 5 4 4 3 3 2 2 2 2 2 3 2 2 3 3 2 2 3 2 2 3 2
5 3 5 6 8 7 6 6 2 6 5 7 9 9 9 9 8 8 8 7 7 7 6 6 6 6 6 5 5 5 4 3 2 2 2 2 2 2 2 3 3 3 3 2 3 2 3 3 3
4 5 5 7 8 8 4 6 2 2 1 3 6 8 8 8 8 7 7 6 6 7 7 7 7 6 6 6 6 5 4 3 2 2 2 3 2 2 2 2 3 3 3 3 3 3 4 3 3
9 9 6 7 7 4 2 6 1 3 1 1 3 7 8 8 7 7 7 7 6 7 7 7 8 7 6 6 5 5 4 4 4 4 3 3 2 2 2 2 2 3 3 3 3 3 4 4 4
9 11 8 7 6 4 5 5 1 3 1 1 3 5 7 8 7 7 7 7 7 7 8 7 8 7 7 6 5 4 4 4 3 4 3 3 3 2 1 2 2 2 3 3 3 3 4 3 4
8 8 9 9 10 9 4 3 3 3 3 3 4 5 7 7 6 6 6 6 7 7 7 7 7 6 6 6 5 5 4 4 3 3 4 3 3 2 2 2 2 2 2 3 3 3 3 3 4
8 7 7 9 8 9 7 6 2 3 3 4 4 5 5 5 5 5 6 6 7 7 7 7 7 6 6 6 5 4 5 4 4 4 3 2 3 2 2 3 3 3 2 3 3 3 3 3 4
8 8 7 8 8 9 8 3 3 1 2 2 3 4 4 4 4 5 5 6 7 7 7 7 7 7 6 6 5 5 5 5 4 4 3 3 3 2 3 3 3 3 3 3 3 3 3 4 4
8 8 9 8 8 8 9 3 4 1 1 1 2 3 3 3 4 5 5 6 6 6 6 6 6 6 6 5 5 5 5 5 5 5 4 4 4 3 3 3 3 4 3 3 3 4 3 4 4
Wind_Direction
187 190 210 238 229 106 64 61 62 69 65 55 56 53 52 40 29 57 71 91 94 103 111 120 115 113 111 110 109 111 113 113 117 123 127 128 130 131 131 133 133 131 132 135 137 137 136 136 139
182 188 229 240 269 79 70 64 66 59 71 76 71 68 68 63 53 81 99 101 110 108 114 113 115 116 113 112 111 110 111 113 116 121 125 129 128 126 127 129 130 130 134 137 139 141 140 138 139
188 222 258 248 55 59 73 70 75 77 74 69 77 58 51 56 66 87 98 117 117 107 108 111 119 117 116 114 112 110 110 111 114 117 122 126 126 126 122 122 123 126 130 135 140 141 143 143 144
216 224 235 81 72 61 66 77 82 88 78 65 85 84 74 51 58 95 115 124 114 108 107 106 113 115 117 117 114 112 110 110 113 115 117 120 120 120 118 118 116 119 122 127 136 143 145 151 158
238 254 165 88 75 72 69 72 75 72 74 79 79 86 80 66 85 106 119 118 113 109 107 108 105 108 113 116 115 116 113 113 113 114 115 119 120 119 119 120 117 118 120 122 132 139 150 157 162
242 242 77 80 82 78 80 73 77 79 84 91 93 92 84 94 107 112 113 112 108 108 107 110 111 108 111 112 112 113 112 113 113 110 109 113 119 120 121 122 119 119 121 123 134 140 148 153 161
293 1 63 72 86 88 77 65 60 81 87 84 94 97 106 111 114 117 113 108 105 105 106 110 121 122 119 112 109 111 109 106 104 106 109 111 116 118 119 124 120 117 117 115 125 136 149 161 171
294 290 70 72 75 79 89 86 61 61 79 89 91 99 119 128 133 126 117 112 107 106 109 111 111 111 123 124 116 112 107 104 104 106 109 117 127 134 131 142 116 109 108 102 105 107 120 162 167
265 286 59 53 56 77 101 101 86 85 102 95 70 69 110 133 140 134 126 120 118 119 119 116 114 113 113 112 117 126 125 120 132 128 127 155 142 127 139 97 101 103 96 84 89 96 178 213 174
273 41 48 38 45 71 101 99 112 130 115 115 107 104 124 143 148 144 138 134 132 130 126 117 114 113 112 104 114 125 125 118 119 99 121 119 91 93 99 110 121 114 111 134 107 171 223 231 178
337 34 40 41 51 79 107 115 120 120 104 120 135 140 145 151 154 150 145 143 137 131 129 132 118 107 102 106 114 105 108 116 124 110 114 102 111 117 136 135 150 155 174 143 138 206 243 41 36
17 26 7 38 64 102 96 107 113 77 62 91 135 145 152 159 159 156 152 146 139 137 138 136 127 120 105 93 115 137 128 123 114 117 147 126 120 111 92 106 86 146 112 58 22 44 45 46 64
297 22 37 72 117 111 111 99 104 85 90 116 133 148 156 159 157 154 149 147 148 147 143 136 134 137 138 139 181 135 129 127 129 123 124 173 155 134 113 113 71 342 44 127 120 89 45 358 138
11 360 62 107 138 143 135 112 128 107 124 133 144 152 158 158 158 156 161 162 161 157 154 149 158 154 160 165 169 148 157 145 154 148 116 196 143 145 194 173 177 300 345 13 345 41 10 41 64
249 232 165 135 160 164 192 149 125 127 145 147 153 155 157 163 164 166 168 170 166 166 165 164 169 163 167 173 173 169 182 157 155 143 139 180 180 173 235 238 227 315 296 211 218 161 56 74 90
229 233 185 129 187 183 236 95 118 142 163 161 161 163 167 168 169 168 167 169 168 170 169 177 176 166 166 172 183 181 173 152 170 177 165 182 211 222 248 253 248 248 254 226 192 213 178 73 335
211 267 12 117 178 202 236 21 120 162 176 172 173 175 176 171 174 170 170 172 172 174 174 178 181 177 172 165 177 188 165 171 201 209 193 183 218 230 247 262 295 258 251 247 257 107 331 12 327
306 319 333 350 156 219 228 234 151 174 191 184 181 181 182 183 179 174 177 175 175 175 181 185 188 182 181 175 176 185 176 182 191 204 181 219 229 237 263 230 231 263 253 250 352 28 259 261 263
293 295 308 335 310 251 245 242 209 183 199 195 188 187 188 188 177 174 179 179 178 180 186 194 199 185 190 190 194 188 184 194 195 201 186 223 242 238 257 275 209 250 238 253 227 223 214 227 243
259 270 284 302 182 265 272 261 227 195 203 206 198 194 194 186 179 181 184 183 184 185 191 196 200 193 195 192 204 201 195 204 199 209 181 225 229 242 219 240 249 228 215 204 216 235 261 242 230
253 266 285 300 257 225 257 236 204 190 200 203 205 200 196 192 186 184 187 191 188 190 194 198 199 199 200 197 197 185 182 203 190 198 191 205 215 221 255 236 256 255 245 205 222 226 238 252 227
254 270 274 265 259 243 251 276 175 182 192 198 202 199 197 193 190 185 187 191 193 193 193 194 194 196 196 197 199 196 200 209 208 213 184 192 205 217 219 228 234 247 249 222 230 211 242 251 243
271 287 263 263 266 266 232 264 175 172 205 196 198 198 196 191 190 189 191 193 193 190 189 183 183 189 192 194 193 202 212 213 206 205 175 211 188 212 220 224 231 234 239 234 246 235 247 244 257
215 216 224 238 250 252 248 268 264 150 202 187 184 189 192 189 188 188 188 185 186 184 185 180 179 185 189 192 192 203 211 215 220 226 209 216 201 206 206 223 238 242 245 229 231 232 229 246 259
218 237 240 230 226 239 173 260 316 54 64 226 186 182 182 185 186 186 187 185 185 186 185 180 178 181 185 189 194 203 210 211 218 233 224 241 228 216 209 238 242 247 240 238 236 230 243 235 236
227 248 262 277 280 271 194 252 53 87 89 186 195 177 177 187 188 185 185 184 184 185 183 181 180 182 185 190 195 203 215 222 219 226 246 236 253 248 215 221 234 249 252 246 235 240 234 229 232
231 240 270 276 275 273 258 234 199 155 180 182 176 173 181 187 184 179 172 173 175 178 179 181 177 180 185 189 193 198 207 226 235 227 234 240 249 243 220 229 232 244 253 260 252 248 247 240 240
262 262 250 258 271 276 266 247 236 179 193 179 179 179 177 178 179 173 168 168 172 174 175 179 179 183 187 189 197 192 197 207 223 238 244 257 254 260 253 245 240 237 242 251 260 253 247 245 242
208 224 249 264 272 279 281 287 56 165 205 190 172 160 158 167 171 167 166 166 169 173 176 181 184 189 193 196 197 203 204 207 213 221 229 235 240 237 240 243 243 241 242 248 252 265 256 249 246
240 240 240 252 259 263 280 289 95 118 158 161 149 136 138 155 160 161 159 162 169 177 180 182 191 193 193 194 196 202 208 214 216 216 221 225 228 230 225 232 236 241 241 245 250 257 257 256 250